Location: ?????
(55.6500°N, 37.2500°E)
Time: 06:12:18
(UTC+00:00)

COSMOS 2406 - Pass Details

Date: 19 May 2025
Orbit: 845 x 859 km, 71.0° (Epoch: 15 June)

Event Time Altitude Azimuth Distance (km) Brightness Sun altitude
Exits shadow 20:17:10 16° 184° (S) 2,079 4.7 -12.9°
Maximum altitude 20:21:31 51° 114° (ESE) 1,071 3.5 -13.1°
Drops below altitude 10° 20:27:02 10° 40° (NE) 2,494 6.1 -13.3°
Sets 20:29:33 0° 36° (NE) 3,436 7.0 -13.4°
